When you browse on this site, cookies collect data to enhance your experience and personalize the content and advertising you see.
Visit our Privacy Policy to learn more. By continuing to use the site, you agree to this use of cookies and data.
  • Em Portugal
  • Lista de países
  • Para 7 dias
  • Temperatura da água
  • Mapas de satélite
  • Mapa do tempo
  • Widgets de tempo
  • user-avatar
    Iniciar Sessão

    Previsão horária em Bucznik

    Hoje, 23 Julho, Terça-feira

    Tempo Temperatura Precipitação Vento Pressão Humidade
    00:00 +15°C° 0 mm 1 m/s 754 mmHg 84%
    01:00 +15°C° 0 mm 2 m/s 753 mmHg 89%
    02:00 +15°C° 0 mm 2 m/s 753 mmHg 87%
    03:00 +15°C° 0 mm 2 m/s 753 mmHg 85%
    04:00 +15°C° 0 mm 1 m/s 753 mmHg 84%
    05:00 +15°C° 0.2 mm 1 m/s 753 mmHg 86%
    06:00 +15°C° 0.2 mm 1 m/s 753 mmHg 88%
    07:00 +15°C° 0.2 mm 1 m/s 753 mmHg 90%
    08:00 +16°C° 0 mm 1 m/s 753 mmHg 89%
    09:00 +16°C° 0 mm 1 m/s 753 mmHg 87%
    10:00 +16°C° 0 mm 1 m/s 753 mmHg 86%
    11:00 +17°C° 0 mm 2 m/s 753 mmHg 85%
    12:00 +17°C° 0 mm 2 m/s 753 mmHg 84%
    13:00 +17°C° 0 mm 2 m/s 753 mmHg 84%
    14:00 +18°C° 0 mm 2 m/s 753 mmHg 83%
    15:00 +18°C° 0 mm 2 m/s 753 mmHg 82%
    16:00 +19°C° 0 mm 2 m/s 753 mmHg 81%
    17:00 +19°C° 0 mm 1 m/s 753 mmHg 84%
    18:00 +19°C° 0 mm 1 m/s 753 mmHg 87%
    19:00 +19°C° 0 mm 1 m/s 752 mmHg 91%
    20:00 +18°C° 0 mm 1 m/s 753 mmHg 92%
    21:00 +18°C° 0 mm 1 m/s 753 mmHg 94%
    22:00 +18°C° 0 mm 1 m/s 753 mmHg 96%
    23:00 +18°C° 0 mm 1 m/s 753 mmHg 96%

    Amanhã, 24 Julho, Quarta-feira

    Tempo Temperatura Precipitação Vento Pressão Humidade
    00:00 +18°C° 0 mm 1 m/s 753 mmHg 97%
    01:00 +18°C° 0 mm 1 m/s 752 mmHg 97%
    02:00 +18°C° 0 mm 1 m/s 752 mmHg 97%
    03:00 +18°C° 0 mm 1 m/s 752 mmHg 97%
    04:00 +18°C° 0 mm 1 m/s 752 mmHg 97%
    05:00 +18°C° 0.1 mm 1 m/s 752 mmHg 95%
    06:00 +19°C° 0.1 mm 1 m/s 752 mmHg 93%
    07:00 +20°C° 0.1 mm 1 m/s 752 mmHg 91%
    08:00 +21°C° 0.2 mm 1 m/s 752 mmHg 88%
    09:00 +22°C° 0.2 mm 1 m/s 753 mmHg 84%
    10:00 +23°C° 0.2 mm 1 m/s 753 mmHg 81%
    11:00 +24°C° 0.2 mm 1 m/s 753 mmHg 77%
    12:00 +25°C° 0.2 mm 2 m/s 753 mmHg 72%
    13:00 +25°C° 0.2 mm 2 m/s 752 mmHg 68%
    14:00 +26°C° 0.1 mm 2 m/s 752 mmHg 67%
    15:00 +26°C° 0.1 mm 2 m/s 752 mmHg 66%
    16:00 +26°C° 0.1 mm 2 m/s 752 mmHg 65%
    17:00 +25°C° 0 mm 2 m/s 752 mmHg 71%
    18:00 +23°C° 0 mm 2 m/s 752 mmHg 78%
    19:00 +21°C° 0 mm 2 m/s 752 mmHg 84%
    20:00 +20°C° 0 mm 2 m/s 752 mmHg 87%
    21:00 +18°C° 0 mm 2 m/s 753 mmHg 91%
    22:00 +18°C° 0 mm 1 m/s 753 mmHg 94%
    23:00 +16°C° 0 mm 1 m/s 753 mmHg 94%

    Depois de amanhã, 25 Julho, Quinta-feira

    Tempo Temperatura Precipitação Vento Pressão Humidade
    00:00 +16°C° 0 mm 1 m/s 753 mmHg 93%
    01:00 +15°C° 0 mm 1 m/s 753 mmHg 93%
    02:00 +15°C° 0 mm 1 m/s 753 mmHg 93%
    03:00 +15°C° 0 mm 1 m/s 753 mmHg 93%
    04:00 +15°C° 0 mm 1 m/s 753 mmHg 93%
    05:00 +16°C° 0 mm 1 m/s 753 mmHg 87%
    06:00 +19°C° 0 mm 1 m/s 753 mmHg 81%
    07:00 +19°C° 0 mm 2 m/s 753 mmHg 75%
    08:00 +21°C° 0 mm 2 m/s 753 mmHg 71%
    09:00 +23°C° 0 mm 2 m/s 754 mmHg 66%
    10:00 +24°C° 0 mm 2 m/s 754 mmHg 62%
    11:00 +25°C° 0 mm 3 m/s 754 mmHg 59%
    12:00 +25°C° 0 mm 3 m/s 753 mmHg 56%
    13:00 +26°C° 0 mm 3 m/s 753 mmHg 53%
    14:00 +25°C° 0 mm 4 m/s 753 mmHg 54%
    15:00 +25°C° 0 mm 4 m/s 753 mmHg 55%
    16:00 +23°C° 0 mm 4 m/s 753 mmHg 57%
    17:00 +22°C° 0 mm 4 m/s 753 mmHg 64%
    18:00 +20°C° 0 mm 3 m/s 753 mmHg 71%
    19:00 +19°C° 0 mm 3 m/s 752 mmHg 78%
    20:00 +18°C° 0 mm 2 m/s 753 mmHg 83%
    21:00 +16°C° 0 mm 2 m/s 753 mmHg 88%
    22:00 +15°C° 0 mm 2 m/s 753 mmHg 93%
    23:00 +15°C° 0 mm 2 m/s 753 mmHg 94%

    26 Julho, Sexta-feira

    Tempo Temperatura Precipitação Vento Pressão Humidade
    00:00 +15°C° 0 mm 2 m/s 752 mmHg 96%
    01:00 +15°C° 0 mm 2 m/s 752 mmHg 97%
    02:00 +15°C° 0 mm 2 m/s 752 mmHg 97%
    03:00 +15°C° 0 mm 2 m/s 752 mmHg 97%
    04:00 +15°C° 0 mm 2 m/s 752 mmHg 97%
    05:00 +17°C° 0 mm 2 m/s 752 mmHg 92%
    06:00 +18°C° 0 mm 2 m/s 752 mmHg 88%
    07:00 +20°C° 0 mm 2 m/s 752 mmHg 83%
    08:00 +21°C° 0 mm 3 m/s 752 mmHg 75%
    09:00 +24°C° 0 mm 3 m/s 752 mmHg 67%
    10:00 +25°C° 0 mm 4 m/s 752 mmHg 59%
    11:00 +25°C° 0 mm 4 m/s 752 mmHg 57%
    12:00 +26°C° 0 mm 4 m/s 751 mmHg 56%
    13:00 +26°C° 0 mm 4 m/s 751 mmHg 54%
    14:00 +25°C° 0.1 mm 4 m/s 751 mmHg 59%
    15:00 +23°C° 0.1 mm 4 m/s 751 mmHg 64%
    16:00 +23°C° 0.1 mm 5 m/s 750 mmHg 68%
    17:00 +22°C° 0 mm 4 m/s 750 mmHg 73%
    18:00 +21°C° 0 mm 4 m/s 750 mmHg 77%
    19:00 +20°C° 0 mm 3 m/s 750 mmHg 82%
    20:00 +19°C° 0 mm 3 m/s 750 mmHg 86%
    21:00 +18°C° 0 mm 3 m/s 750 mmHg 90%
    22:00 +17°C° 0 mm 2 m/s 750 mmHg 95%
    23:00 +17°C° 0 mm 2 m/s 750 mmHg 95%

    27 Julho, Sábado

    Tempo Temperatura Precipitação Vento Pressão Humidade
    00:00 +17°C° 0 mm 2 m/s 750 mmHg 95%
    01:00 +17°C° 0 mm 2 m/s 750 mmHg 96%
    02:00 +16°C° 0 mm 2 m/s 750 mmHg 96%
    03:00 +16°C° 0 mm 2 m/s 750 mmHg 96%
    04:00 +16°C° 0 mm 3 m/s 750 mmHg 96%
    05:00 +17°C° 0 mm 3 m/s 750 mmHg 92%
    06:00 +19°C° 0 mm 3 m/s 750 mmHg 88%
    07:00 +20°C° 0 mm 4 m/s 750 mmHg 84%
    08:00 +22°C° 0 mm 4 m/s 750 mmHg 77%
    09:00 +23°C° 0 mm 4 m/s 750 mmHg 70%
    10:00 +26°C° 0 mm 4 m/s 750 mmHg 64%
    11:00 +27°C° 0 mm 4 m/s 750 mmHg 61%
    12:00 +28°C° 0 mm 4 m/s 749 mmHg 59%
    13:00 +28°C° 0 mm 5 m/s 749 mmHg 57%
    14:00 +28°C° 0.2 mm 5 m/s 749 mmHg 60%
    15:00 +28°C° 0.2 mm 5 m/s 748 mmHg 63%
    16:00 +27°C° 0.2 mm 5 m/s 748 mmHg 65%
    17:00 +26°C° 0.2 mm 4 m/s 748 mmHg 71%
    18:00 +25°C° 0.2 mm 4 m/s 748 mmHg 76%
    19:00 +24°C° 0.2 mm 3 m/s 748 mmHg 81%
    20:00 +22°C° 0 mm 3 m/s 748 mmHg 84%
    21:00 +21°C° 0 mm 3 m/s 748 mmHg 88%
    22:00 +20°C° 0 mm 3 m/s 748 mmHg 91%
    23:00 +20°C° 0 mm 3 m/s 748 mmHg 92%

    28 Julho, Domingo

    Tempo Temperatura Precipitação Vento Pressão Humidade
    00:00 +19°C° 0 mm 3 m/s 748 mmHg 93%
    01:00 +19°C° 0 mm 3 m/s 748 mmHg 93%
    02:00 +19°C° 0 mm 3 m/s 748 mmHg 94%
    03:00 +18°C° 0 mm 3 m/s 748 mmHg 94%
    04:00 +18°C° 0 mm 3 m/s 748 mmHg 95%
    05:00 +19°C° 0 mm 3 m/s 748 mmHg 89%
    06:00 +21°C° 0 mm 3 m/s 749 mmHg 84%
    07:00 +22°C° 0 mm 3 m/s 749 mmHg 78%
    08:00 +25°C° 0 mm 4 m/s 749 mmHg 71%
    09:00 +27°C° 0 mm 4 m/s 749 mmHg 63%
    10:00 +28°C° 0 mm 5 m/s 749 mmHg 56%
    11:00 +29°C° 0 mm 5 m/s 749 mmHg 55%
    12:00 +29°C° 0 mm 5 m/s 749 mmHg 54%
    13:00 +30°C° 0 mm 5 m/s 748 mmHg 53%
    14:00 +30°C° 0 mm 5 m/s 748 mmHg 54%
    15:00 +29°C° 0 mm 5 m/s 748 mmHg 55%
    16:00 +29°C° 0 mm 5 m/s 748 mmHg 57%
    17:00 +28°C° 0 mm 4 m/s 748 mmHg 63%
    18:00 +26°C° 0 mm 4 m/s 748 mmHg 70%
    19:00 +25°C° 0 mm 4 m/s 748 mmHg 77%
    20:00 +22°C° 0 mm 3 m/s 748 mmHg 81%
    21:00 +21°C° 0 mm 3 m/s 749 mmHg 85%
    22:00 +20°C° 0 mm 2 m/s 749 mmHg 89%
    23:00 +20°C° 0 mm 2 m/s 749 mmHg 90%
    Mostrar mais